Location: Degersen
(52.2871°N, 9.5716°E)
Time: 20:37:53
(UTC+00:00)

USA 307 - Pass Details

Date: 20 January 2026
Orbit: 495 x 502 km, 54.0° (Epoch: 10 March)

Event Time Altitude Azimuth Distance (km) Brightness Sun altitude
Exits shadow 04:33:15 24° 163° (SSE) 1,090 4.5 -24.8°
Drops below altitude 10° 04:35:07 10° 146° (SE) 1,699 5.7 -24.5°
Sets 04:37:23 0° 138° (SE) 2,535 6.8 -24.2°
